This is the latest recevied weather packets stored in our database for station/object IW2LSY-11. If no packets are shown the sender has not sent any weather packets the latest 10 day(s).
| Time | Temp. | Humidity | Pressure | Rain* | Wind** | Luminosity | Snow |
|---|---|---|---|---|---|---|---|
| 1777893013 | 23.33° C | 31% | 1017.1 hPa | - | - | 455 W/m² | - |
| 1777892413 | 23.33° C | 31% | 1017.1 hPa | - | - | 454 W/m² | - |
| 1777891813 | 23.33° C | 31% | 1017.1 hPa | - | - | 450 W/m² | - |
| 1777891214 | 21.11° C | 33% | 1017.2 hPa | - | - | 447 W/m² | - |
| 1777890615 | 22.78° C | 32% | 1017.4 hPa | - | - | 448 W/m² | - |
| 1777890014 | 21.67° C | 33% | 1017.5 hPa | - | - | 446 W/m² | - |
| 1777889414 | 22.22° C | 33% | 1017.5 hPa | - | - | 445 W/m² | - |
| 1777888815 | 21.67° C | 34% | 1017.6 hPa | - | - | 444 W/m² | - |
| 1777888205 | 21.67° C | 33% | 1017.6 hPa | - | - | 446 W/m² | - |
| 1777887605 | 21.11° C | 34% | 1017.7 hPa | - | - | 446 W/m² | - |
| 1777887004 | 21.67° C | 33% | 1017.8 hPa | - | - | 449 W/m² | - |
| 1777886404 | 21.11° C | 35% | 1018 hPa | - | - | 451 W/m² | - |
| 1777885805 | 21.11° C | 36% | 1018 hPa | - | - | 451 W/m² | - |
| 1777885205 | 21.11° C | 36% | 1018.1 hPa | - | - | 451 W/m² | - |
| 1777884605 | 20.56° C | 36% | 1018.1 hPa | - | - | 452 W/m² | - |
| 1777884005 | 20° C | 37% | 1018.1 hPa | - | - | 454 W/m² | - |
| 1777883405 | 18.33° C | 40% | 1018.2 hPa | - | - | 455 W/m² | - |
| 1777882805 | 20° C | 37% | 1018.1 hPa | - | - | 456 W/m² | - |
| 1777882205 | 20° C | 38% | 1018.2 hPa | - | - | 456 W/m² | - |
| 1777881606 | 20.56° C | 36% | 1018.2 hPa | - | - | 456 W/m² | - |
| 1777881006 | 20° C | 37% | 1018.2 hPa | - | - | 457 W/m² | - |
| 1777880407 | 20.56° C | 37% | 1018.2 hPa | - | - | 457 W/m² | - |
| 1777879808 | 20.56° C | 37% | 1018.2 hPa | - | - | 458 W/m² | - |
| 1777879208 | 19.44° C | 38% | 1018.1 hPa | - | - | 460 W/m² | - |
| 1777878609 | 21.11° C | 35% | 1018.1 hPa | - | - | 460 W/m² | - |
* Rain since midnight (hover to see other rain measurements)
** Current wind speed in m/s (hover to see current wind gust speed)